"Period start","avg(HW err(1)/warn(2) (#))","avg(Visibility (m))","avg(Weather code (#))","avg(Precip intensity (mm/h))","min(HW err(1)/warn(2) (#))","max(HW err(1)/warn(2) (#))","std(HW err(1)/warn(2) (#))","med(HW err(1)/warn(2) (#))","min(Visibility (m))","max(Visibility (m))","std(Visibility (m))","med(Visibility (m))","min(Weather code (#))","max(Weather code (#))","std(Weather code (#))","med(Weather code (#))","min(Precip intensity (mm/h))","max(Precip intensity (mm/h))","std(Precip intensity (mm/h))","med(Precip intensity (mm/h))"
2014-04-22 00:00:00,2,38806,0,0.00,2,2,0,2,32056,49152,5120,38302,0,0,0,0,0.00,0.00,0.00,0.00
2014-04-22 00:10:00,2,42847,0,0.00,2,2,0,2,33724,49619,4775,42892,0,0,0,0,0.00,0.00,0.00,0.00
2014-04-22 00:20:00,2,44163,0,0.00,2,2,0,2,35665,50000,5168,44951,0,0,0,0,0.00,0.00,0.00,0.00
2014-04-22 00:30:00,2,42301,0,0.00,2,2,0,2,28334,50000,7420,43005,0,0,0,0,0.00,0.00,0.00,0.00
2014-04-22 00:40:00,2,43454,0,0.00,2,2,0,2,32913,50000,5675,44000,0,0,0,0,0.00,0.00,0.00,0.00
2014-04-22 00:50:00,2,40403,0,0.00,2,2,0,2,30868,50000,6013,40502,0,0,0,0,0.00,0.00,0.00,0.00
2014-04-22 01:00:00,2,37580,0,0.00,2,2,0,2,25369,45992,6754,39880,0,0,0,0,0.00,0.00,0.00,0.00
2014-04-22 01:10:00,2,43469,0,0.00,2,2,0,2,28753,50000,6983,44936,0,0,0,0,0.00,0.00,0.00,0.00
2014-04-22 01:20:00,2,43341,0,0.00,2,2,0,2,29655,50000,6552,45388,0,0,0,0,0.00,0.00,0.00,0.00
2014-04-22 01:30:00,2,40196,0,0.00,2,2,0,2,32808,50000,5637,39358,0,0,0,0,0.00,0.00,0.00,0.00
2014-04-22 01:40:00,2,39252,0,0.00,2,2,0,2,25314,50000,7982,40514,0,0,0,0,0.00,0.00,0.00,0.00
2014-04-22 01:50:00,2,45879,0,0.00,2,2,0,2,33228,50000,5094,47262,0,0,0,0,0.00,0.00,0.00,0.00
2014-04-22 02:00:00,2,42738,0,0.00,2,2,0,2,27985,50000,6298,45620,0,0,0,0,0.00,0.00,0.00,0.00
2014-04-22 02:10:00,2,39786,0,0.00,2,2,0,2,25107,50000,8309,40943,0,0,0,0,0.00,0.00,0.00,0.00
2014-04-22 02:20:00,2,43044,0,0.00,2,2,0,2,25118,50000,8467,47314,0,0,0,0,0.00,0.00,0.00,0.00
2014-04-22 02:30:00,2,37752,0,0.00,2,2,0,2,27753,48572,6995,37468,0,0,0,0,0.00,0.00,0.00,0.00
2014-04-22 02:40:00,2,32543,0,0.00,2,2,0,2,19977,48041,8368,30661,0,0,0,0,0.00,0.00,0.00,0.00
2014-04-22 02:50:00,2,37158,0,0.00,2,2,0,2,21449,50000,8712,36655,0,0,0,0,0.00,0.00,0.00,0.00
2014-04-22 03:00:00,2,35975,0,0.00,2,2,0,2,21318,50000,8923,34720,0,0,0,0,0.00,0.00,0.00,0.00
2014-04-22 03:10:00,2,33685,0,0.00,2,2,0,2,23018,46327,6257,34251,0,0,0,0,0.00,0.00,0.00,0.00
2014-04-22 03:20:00,2,41516,0,0.00,2,2,0,2,28930,50000,6578,43344,0,0,0,0,0.00,0.00,0.00,0.00
2014-04-22 03:30:00,2,39662,0,0.00,2,2,0,2,29942,47198,4627,40710,0,0,0,0,0.00,0.00,0.00,0.00
2014-04-22 03:40:00,2,36009,0,0.00,2,2,0,2,24954,44855,6645,35690,0,0,0,0,0.00,0.00,0.00,0.00
2014-04-22 03:50:00,2,40087,0,0.00,2,2,0,2,29901,48103,6114,40702,0,0,0,0,0.00,0.00,0.00,0.00
2014-04-22 04:00:00,2,34718,0,0.00,2,2,0,2,24770,50000,7624,36172,0,0,0,0,0.00,0.00,0.00,0.00
2014-04-22 04:10:00,2,38755,0,0.00,2,2,0,2,26516,49477,7704,40064,0,0,0,0,0.00,0.00,0.00,0.00
2014-04-22 04:20:00,2,38856,0,0.00,2,2,0,2,31151,45295,4280,39328,0,0,0,0,0.00,0.00,0.00,0.00
2014-04-22 04:30:00,2,32857,0,0.00,2,2,0,2,28687,42265,3705,32366,0,0,0,0,0.00,0.00,0.00,0.00
2014-04-22 04:40:00,2,31914,0,0.00,2,2,0,2,23729,50000,7780,30736,0,0,0,0,0.00,0.00,0.00,0.00
2014-04-22 04:50:00,2,38991,0,0.00,2,2,0,2,25245,50000,8325,41458,0,0,0,0,0.00,0.00,0.00,0.00
2014-04-22 05:00:00,2,39292,0,0.00,2,2,0,2,29001,49240,7566,37280,0,0,0,0,0.00,0.00,0.00,0.00
2014-04-22 05:10:00,2,25275,0,0.00,2,2,0,2,18518,32939,4139,24832,0,0,0,0,0.00,0.00,0.00,0.00
2014-04-22 05:20:00,2,33105,0,0.00,2,2,0,2,28240,37928,3064,32626,0,0,0,0,0.00,0.00,0.00,0.00
2014-04-22 05:30:00,2,42145,0,0.00,2,2,0,2,19677,50000,11065,47228,0,0,0,0,0.00,0.00,0.00,0.00
2014-04-22 05:40:00,2,38847,0,0.00,2,2,0,2,22886,50000,8518,41501,0,0,0,0,0.00,0.00,0.00,0.00
2014-04-22 05:50:00,2,34746,0,0.00,2,2,0,2,21139,44471,7222,37820,0,0,0,0,0.00,0.00,0.00,0.00
2014-04-22 06:00:00,2,37324,0,0.00,2,2,0,2,18577,48967,8391,38452,0,0,0,0,0.00,0.00,0.00,0.00
2014-04-22 06:10:00,2,37732,0,0.00,2,2,0,2,22150,50000,7590,37146,0,0,0,0,0.00,0.00,0.00,0.00
2014-04-22 06:20:00,2,38317,0,0.00,2,2,0,2,28472,50000,6486,38768,0,0,0,0,0.00,0.00,0.00,0.00
2014-04-22 06:30:00,2,36461,0,0.00,2,2,0,2,23836,49169,7053,34412,0,0,0,0,0.00,0.00,0.00,0.00
2014-04-22 06:40:00,2,38874,0,0.00,2,2,0,2,27202,50000,6557,37418,0,0,0,0,0.00,0.00,0.00,0.00
2014-04-22 06:50:00,2,38913,0,0.00,2,2,0,2,29136,50000,6764,38470,0,0,0,0,0.00,0.00,0.00,0.00
2014-04-22 07:00:00,2,39117,0,0.00,2,2,0,2,24129,50000,6968,39279,0,0,0,0,0.00,0.00,0.00,0.00
2014-04-22 07:10:00,2,42906,0,0.00,2,2,0,2,37800,50000,4103,41346,0,0,0,0,0.00,0.00,0.00,0.00
2014-04-22 07:20:00,2,38166,0,0.00,2,2,0,2,24055,50000,9623,36352,0,0,0,0,0.00,0.00,0.00,0.00
2014-04-22 07:30:00,2,33505,0,0.00,2,2,0,2,26910,42171,4248,32708,0,0,0,0,0.00,0.00,0.00,0.00
2014-04-22 07:40:00,2,34510,0,0.00,2,2,0,2,22664,50000,8278,34123,0,0,0,0,0.00,0.00,0.00,0.00
2014-04-22 07:50:00,2,41819,0,0.00,2,2,0,2,30035,50000,7301,41554,0,0,0,0,0.00,0.00,0.00,0.00
2014-04-22 08:00:00,2,38500,0,0.00,2,2,0,2,29909,44672,4264,39048,0,0,0,0,0.00,0.00,0.00,0.00
2014-04-22 08:10:00,2,42776,0,0.00,2,2,0,2,31939,50000,5717,44310,0,0,0,0,0.00,0.00,0.00,0.00
2014-04-22 08:20:00,2,38059,0,0.00,2,2,0,2,27133,47439,6277,36664,0,0,0,0,0.00,0.00,0.00,0.00
2014-04-22 08:30:00,2,41525,0,0.00,2,2,0,2,27598,49496,6770,43007,0,0,0,0,0.00,0.00,0.00,0.00
2014-04-22 08:40:00,2,38168,0,0.00,2,2,0,2,29504,46034,5072,37882,0,0,0,0,0.00,0.00,0.00,0.00
2014-04-22 08:50:00,2,46090,0,0.00,2,2,0,2,38899,50000,4393,48562,0,0,0,0,0.00,0.00,0.00,0.00
2014-04-22 09:00:00,2,44153,0,0.00,2,2,0,2,34153,50000,5091,45946,0,0,0,0,0.00,0.00,0.00,0.00
2014-04-22 09:10:00,2,35042,0,0.00,2,2,0,2,27628,44654,4834,35140,0,0,0,0,0.00,0.00,0.00,0.00
2014-04-22 09:20:00,2,38680,0,0.00,2,2,0,2,28057,50000,7522,40112,0,0,0,0,0.00,0.00,0.00,0.00
2014-04-22 09:30:00,2,43549,0,0.00,2,2,0,2,36026,50000,5536,42530,0,0,0,0,0.00,0.00,0.00,0.00
2014-04-22 09:40:00,2,42500,0,0.00,2,2,0,2,32017,50000,5351,42370,0,0,0,0,0.00,0.00,0.00,0.00
2014-04-22 09:50:00,2,46753,0,0.00,2,2,0,2,40517,50000,3484,48704,0,0,0,0,0.00,0.00,0.00,0.00
2014-04-22 10:00:00,2,43988,0,0.00,2,2,0,2,32856,50000,6440,46042,0,0,0,0,0.00,0.00,0.00,0.00
2014-04-22 10:10:00,2,48800,0,0.00,2,2,0,2,44924,50000,1944,50000,0,0,0,0,0.00,0.00,0.00,0.00
2014-04-22 10:20:00,2,47152,0,0.00,2,2,0,2,37497,50000,4121,49981,0,0,0,0,0.00,0.00,0.00,0.00
2014-04-22 10:30:00,2,44817,0,0.00,2,2,0,2,40158,50000,3515,44669,0,0,0,0,0.00,0.00,0.00,0.00
2014-04-22 10:40:00,2,46092,0,0.00,2,2,0,2,38424,50000,3073,46630,0,0,0,0,0.00,0.00,0.00,0.00
2014-04-22 10:50:00,2,46054,0,0.00,2,2,0,2,38985,50000,3758,45482,0,0,0,0,0.00,0.00,0.00,0.00
2014-04-22 11:00:00,2,47794,0,0.00,2,2,0,2,42672,50000,2607,49237,0,0,0,0,0.00,0.00,0.00,0.00
2014-04-22 11:10:00,2,44924,0,0.00,2,2,0,2,39150,50000,3515,44881,0,0,0,0,0.00,0.00,0.00,0.00
2014-04-22 11:20:00,2,48865,0,0.00,2,2,0,2,41710,50000,2461,50000,0,0,0,0,0.00,0.00,0.00,0.00
2014-04-22 11:30:00,2,49818,0,0.00,2,2,0,2,48183,50000,545,50000,0,0,0,0,0.00,0.00,0.00,0.00
2014-04-22 11:40:00,2,49956,0,0.00,2,2,0,2,49561,50000,132,50000,0,0,0,0,0.00,0.00,0.00,0.00
2014-04-22 11:50:00,2,49798,0,0.00,2,2,0,2,48110,50000,564,50000,0,0,0,0,0.00,0.00,0.00,0.00
2014-04-22 12:00:00,2,49522,0,0.00,2,2,0,2,47588,50000,957,50000,0,0,0,0,0.00,0.00,0.00,0.00
2014-04-22 12:10:00,2,49819,0,0.00,2,2,0,2,48898,50000,373,50000,0,0,0,0,0.00,0.00,0.00,0.00
2014-04-22 12:20:00,2,49803,0,0.00,2,2,0,2,48030,50000,591,50000,0,0,0,0,0.00,0.00,0.00,0.00
2014-04-22 12:30:00,2,48524,0,0.00,2,2,0,2,43975,50000,2130,50000,0,0,0,0,0.00,0.00,0.00,0.00
2014-04-22 12:40:00,2,49038,0,0.00,2,2,0,2,45152,50000,1862,50000,0,0,0,0,0.00,0.00,0.00,0.00
2014-04-22 12:50:00,2,49729,0,0.00,2,2,0,2,48693,50000,423,50000,0,0,0,0,0.00,0.00,0.00,0.00
2014-04-22 13:00:00,2,41051,0,0.00,2,2,0,2,34500,45382,3549,42598,0,0,0,0,0.00,0.00,0.00,0.00
2014-04-22 13:10:00,2,47293,0,0.00,2,2,0,2,41944,50000,3105,48312,0,0,0,0,0.00,0.00,0.00,0.00
2014-04-22 13:20:00,2,48024,0,0.00,2,2,0,2,42116,50000,2952,50000,0,0,0,0,0.00,0.00,0.00,0.00
2014-04-22 13:30:00,2,48479,0,0.00,2,2,0,2,43627,50000,2170,49938,0,0,0,0,0.00,0.00,0.00,0.00
2014-04-22 13:40:00,2,49256,0,0.00,2,2,0,2,46321,50000,1108,49844,0,0,0,0,0.00,0.00,0.00,0.00
2014-04-22 13:50:00,2,48810,0,0.00,2,2,0,2,42757,50000,2212,50000,0,0,0,0,0.00,0.00,0.00,0.00
2014-04-22 14:00:00,2,49667,0,0.00,2,2,0,2,47109,50000,863,50000,0,0,0,0,0.00,0.00,0.00,0.00
2014-04-22 14:10:00,2,49388,0,0.00,2,2,0,2,46959,50000,1020,50000,0,0,0,0,0.00,0.00,0.00,0.00
2014-04-22 14:20:00,2,49926,0,0.00,2,2,0,2,49366,50000,189,50000,0,0,0,0,0.00,0.00,0.00,0.00
2014-04-22 14:30:00,2,49862,0,0.00,2,2,0,2,48615,50000,416,50000,0,0,0,0,0.00,0.00,0.00,0.00
2014-04-22 14:40:00,2,47066,0,0.00,2,2,0,2,39614,50000,3650,49356,0,0,0,0,0.00,0.00,0.00,0.00
2014-04-22 14:50:00,2,45252,0,0.00,2,2,0,2,39580,50000,3448,45124,0,0,0,0,0.00,0.00,0.00,0.00
2014-04-22 15:00:00,2,48890,0,0.00,2,2,0,2,46197,50000,1561,49844,0,0,0,0,0.00,0.00,0.00,0.00
2014-04-22 15:10:00,2,49910,0,0.00,2,2,0,2,49359,50000,199,50000,0,0,0,0,0.00,0.00,0.00,0.00
2014-04-22 15:20:00,2,50000,0,0.00,2,2,0,2,50000,50000,0,50000,0,0,0,0,0.00,0.00,0.00,0.00
